Location: Gwatt
(46.7204°N, 7.6223°E)
Time: 08:18:53
(UTC+00:00)

S-56A Canister/Altair - Pass Details

Date: 26 January 2021
Orbit: 632 x 2501 km, 38.9° (Epoch: 08 March)

Event Time Altitude Azimuth Distance (km) Brightness Sun altitude
Rises 23:56:07 0° 202° (SSW) 3,395 - -61.8°
Reaches altitude 10° 00:01:12 10° 162° (SSE) 2,159 - -61.7°
Maximum altitude 00:02:00 10° 153° (SSE) 2,099 - -61.7°
Drops below altitude 10° 00:02:46 10° 143° (SE) 2,094 - -61.7°
Sets 00:07:12 0° 101° (E) 2,915 - -61.5°
